Content
SEND FEEDBACK

Daily
Averages
Monthly
Summary
Canada

ST. JOHN'S, NEWFOUNDLAND


Home > North America > Canada > Newfoundland
Elevation: 459 feet     Latitude: 47 37N     Longitude: 052 44W

WEATHER
 
SELECT A DAY
Number of Records: 203,712;   Date Range: 1/1/95 - 9/17/14
 
SHARE

PRINT THIS DATA

[ ← Previous Day ]
WEATHER ALMANAC - JULY 20, 2014
[ Next Day → ]
[ °C ]   °F
Weather ElementAverageHighLow
Temperature64.9 °F78.8 °F (3:30 pm)48.2 °F (1:30 am)
Dewpoint50.6 °F55.4 °F (10:30 am)46.4 °F (1:30 am)
Humidity62.9 %100 % (2:30 am)29 % (3:30 pm)
Barometer30.22 in30.26 in (1:30 am)30.16 in (6:30 pm)
Wind Speed14 mph21.9 mph (4:30 pm)
Wind Gust28.8 mph (4:30 pm)
Weather ElementAverage
Visibility15 mi
Wind DirectionWSW (250 °)

Weather ElementTotal
Precipitation---
Heating Degree Days1.5 (Base 65)
Growing Degree Days13.5 (Base 50)
Averaged from 26 records on July 20, 2014
WEATHER CONDITIONS BREAKOUT
WIND DIRECTION BREAKOUT
WEATHER BY HOUR - JULY 20, 2014
[ °C ]   °F
Local TimeTemperatureDewpointHumidityBarometerVisibilityWind DirectionWind SpeedGust SpeedPrecipitationEventsConditions
1:30 AM48.2 °F46.4 °F93 %30.26 in15.0 miSW (230°)4.6 mphClear
2:30 AM48.2 °F48.2 °F100 %30.25 in15.0 miSSW (200°)3.5 mphClear
3:30 AM49.0 °F48.0 °F97 %30.26 in15.0 miWest (260°)5.8 mphMostly Cloudy
3:30 AM50.0 °F48.2 °F94 %30.26 in15.0 miWest (260°)5.8 mphMostly Cloudy
4:30 AM51.8 °F50.0 °F94 %30.26 in15.0 miWSW (250°)6.9 mphMostly Cloudy
5:30 AM50.0 °F48.2 °F94 %30.26 in15.0 miWest (260°)4.6 mphScattered Clouds
6:30 AM53.6 °F50.0 °F88 %30.25 in15.0 miWSW (250°)17.3 mphPartly Cloudy
7:30 AM57.2 °F50.0 °F77 %30.26 in15.0 miWSW (240°)16.1 mphPartly Cloudy
8:30 AM60.8 °F51.8 °F72 %30.25 in15.0 miWSW (250°)16.1 mphPartly Cloudy
9:30 AM63.0 °F54.0 °F64 %30.25 in15.0 miWSW (250°)16.1 mphClear
9:30 AM62.6 °F53.6 °F72 %30.25 in15.0 miWSW (250°)15.0 mph21.9 mphPartly Cloudy
10:30 AM66.2 °F55.4 °F68 %30.24 in15.0 miWSW (240°)15.0 mphPartly Cloudy
11:30 AM71.6 °F48.2 °F43 %30.23 in15.0 miWSW (250°)13.8 mphMostly Cloudy
12:30 PM73.4 °F51.8 °F47 %30.22 in15.0 miWSW (250°)18.4 mphMostly Cloudy
1:30 PM75.2 °F53.6 °F47 %30.20 in15.0 miWSW (250°)19.6 mph27.6 mphMostly Cloudy
2:30 PM77.0 °F48.2 °F36 %30.19 in15.0 miWest (260°)19.6 mph27.6 mphScattered Clouds
3:30 PM78.0 °F51.0 °F29 %30.19 in15.0 miWest (270°)20.7 mphClear
3:30 PM78.8 °F51.8 °F39 %30.19 in15.0 miWest (270°)18.4 mph26.5 mphScattered Clouds
4:30 PM78.8 °F51.8 °F39 %30.18 in15.0 miWSW (250°)21.9 mph28.8 mphScattered Clouds
5:30 PM78.8 °F51.8 °F39 %30.17 in15.0 miWSW (250°)13.8 mph25.3 mphPartly Cloudy
6:30 PM77.0 °F50.0 °F39 %30.16 in15.0 miWSW (250°)17.3 mph24.2 mphScattered Clouds
7:30 PM73.4 °F51.8 °F47 %30.17 in15.0 miWest (260°)17.3 mph24.2 mphPartly Cloudy
9:30 PM67.0 °F51.0 °F45 %30.19 in15.0 miWSW (250°)15.0 mphScattered Clouds
9:30 PM68.0 °F50.0 °F52 %30.19 in15.0 miWSW (250°)13.8 mphPartly Cloudy
10:30 PM66.2 °F50.0 °F56 %30.19 in15.0 miWSW (250°)13.8 mphClear
11:30 PM64.4 °F51.8 °F64 %30.19 in15.0 miWSW (250°)13.8 mphScattered Clouds
Hourly data recorded from CYYT, located miles away from St. John's, Newfoundland







STORIES FROM OUR PARTNERS